sat.trackr.live / text

‹ back to catalog

NORSAT 4

NORAD 62702 · 2025-009CX

PAYLOAD ACTIVE UNKNOWN

§ Identity

Operator
Country
NOR
Launch date
2025-01-14
Launch site
AFWTR
Launch vehicle
Mass (kg)
RCS (m²)

External: N2YO · Heavens-Above · Gunter

§ Orbital elements

Epoch: 2026-09-22T16:26:00.380832Z

Period
96.30 min
Inclination
97.6978°
Eccentricity
0.0002999
Mean motion
14.95325796 rev/d
Perigee alt
579.3 km
Apogee alt
583.4 km
Semi-major
6,959.5 km
B*
1.1558e-4
RAAN
342.6673°
Arg perigee
82.8917°
Mean anomaly
277.2645°
Rev number
9,193

§ Raw data

NORSAT 41 62702U 25009CX  26265.68472663  .00001217  00000+0  11558-3 0  99992 62702  97.6978 342.6673 0002999  82.8917 277.2645 14.95325796 91936

JSON: /api/v1/satellites/62702 · /tle

For live sub-satellite position, see the globe view (requires WebGL).

§ Visibility from observer

Set your observer location to see the next 7 days of passes ≥ 10°. The values pass through the URL so the page stays shareable.

No JS? Fill the form by hand. The geolocation button needs JavaScript.